GECAM-B (47235 NORAD) Tracking and Keplerian Element Data

This shows tracking and keplerian element data for the satellite.

Feedback or suggestion? Click here.




ElementValue
Catalog47235
NameGECAM-B
Epoch Orbit1205
Epoch Day59.83667277
Epoch Year2021
RAAN222.3212
Inclination28.9977
Eccentricity0.0013252
Argument of Perigee43.1464
Mean Anonmoly317.0173
Mean Motion14.90790879
Decay Rate4.06E-06
L11 47235U 20094B 21059.83667277 .00000406 00000-0 26557-4 0 9998
L22 47235 28.9977 222.3212 0013252 43.1464 317.0173 14.90790879 12058

Live tracking and technical data element details for GECAM-B (NORAD 47235). GECAM-B can be tracked NOW for your location showing map with azimuth and elevation plus other details from your city location.

Track the satellite on the map from your city or location and see movement details for azimuth, elevation, latitude, longitude, range, height, and movement on the map or in text.







IsCatalogInMostPopularTable: catalog: 47235, numindb: 28
Update: records affected: 1



GetName: 47235 GECAM-B

Hit Count: updated at: Mon, 01 Mar 2021 23:17:16 GMT